STARLINK-32312, 61711

Orbit data source: Space-Track

STARLINK-32312, 61711 is a payload satellite owned by SpaceX/Seattle (US) in LEO that was launched on Wed, 30 Oct 2024 UTC via an FALCON 9 launch vehicle from the Air Force Eastern Test Range (AFETR). Payload-class satellites include a variety of spacecraft equipped with specific instruments for various scientific and technological missions. These include communications satellites like Starlink; space stations such as the ISS; scientific satellites like the Hubble; Earth observation satellites from companies like Planet Labs, Umbra, and HawkEye 360; GPS; miniature CubeSats for education and research; and military/defense satellites.

Loading next visibility...
Identifier
61711, 2024-196E
Orbit
LEO
Last TLE update
10 hours ago
Origin
Manufacturer
SpaceX/Seattle
Mission
Operational Commercial Communications
Bus & Motor
STARLINK V2M, Unknown motor
Mass
730 kg wet, ~700 kg dry
Launch date (UTC)
2024-10-30 (8 months ago)
Launch vehicle
FALCON 9
Launch site
Air Force Eastern Test Range (AFETR)
Object type
Payload
Rocket body
Debris
Shape & HBR
Box + 2 Pan, 29 m
Radar Cross Section
36.964 m², Large (>1 m²)

Expand to show TLE details & history

TLE from 10 hours ago
0 STARLINK-32312
1 61711U 24196E   25191.58994684 -.00002555  00000-0 -74174-4 0  9995
2 61711  53.1581 145.6111 0001419  95.1787 264.9376 15.30195667 40095
Epoch: 2025-07-10T14:09Z
TLE epoch observation values (Epoch: 2025-07-10T14:09:31.406Z)
Latitude
-0.00002°
Longitude
4.47618°
Altitude
476.213 km
Speed
7.629 km/s
True Right ascension
09h 42m 26s
True Declination
0° 00' 00"
Sunlit
Object was in daylight at epoch
Visualization orbit readout
Latitude
-22.76115°
Longitude
-159.30354°
Altitude
482.083 km
Speed
7.624 km/s
Apparent Right ascension
23h 38m 18s
Apparent Declination
-31° 41' 22"
Sunlit
Object is in full shadow
Visualization observer readout
Local Sidereal Time
12:44:33
Azimuth
63.594° ENE
Elevation
-74.288°
Doppler factor
1
Orbital elements
Apogee altitude
476.457 km
Perigee altitude
474.512 km
Semi-major axis
6,853.622 km
Eccentricity
0.00014
Inclination
53.1581°
RAAN
145.6111°
Arg. of periapsis
95.1787°
True anomaly
Unknown
Mean anomaly
264.9376°
Eccentric anomaly
Unknown
Mean motion
3.82528 °/min
Orbital period
94.11 mins
BSTAR
-0.000074174
Loading maneuver chart data...
Loading SW <> Apogee altitude chart data...
Loading historical data...
Loading historical data...
Loading historical data...
Loading historical data...
Loading historical data...
Loading historical data...
Loading historical data...

STARLINK-32312 Visibility forecast

Observer location: undefined°, undefined°

Span
Click to sort rows by Start time (UTC) header in descending order
Start Az.
Max El. time (UTC)
Max El. Az.
Max El.
End time (UTC)
End Az.
5 mins2025-07-11 01:23:19.278Z291.421° WNW2025-07-11 01:25:19.278Z326.366° NNW18.184°2025-07-11 01:28:19.278Z23.018° NE
5 mins2025-07-11 06:20:19.278Z319.79° NNW2025-07-11 06:22:19.278Z13.142° NNE41.803°2025-07-11 06:25:19.278Z118.568° SE
5 mins2025-07-11 23:16:19.278Z212.047° SW2025-07-11 23:18:19.278Z102.923° ESE41.644°2025-07-11 23:21:19.278Z55.462° ENE
|